Location: Canyam�s
(41.5996°N, 2.4450°E)
Time: 01:36:22
(UTC+00:00)

First-Move - Visible Passes

Search period start: 24 October 2020 00:00
Search period end: 03 November 2020 00:00
Orbit: 577 x 667 km, 97.6° (Epoch: 23 October)

Date Brightness Start Highest point End Pass type
(mag) Time Alt. Az. Time Alt. Az. Time Alt. Az.
24 Oct ? 04:43:23 10° NNE 04:47:20 33° E 04:51:10 10° SSE visible
25 Oct ? 05:01:06 10° NNE 05:05:21 54° E 05:09:28 10° S visible
25 Oct ? 17:33:03 10° SW 17:36:18 19° W 17:39:34 10° NW visible
26 Oct ? 05:18:58 10° NNE 05:23:18 87° E 05:27:30 10° SSW visible
26 Oct ? 17:52:34 10° WSW 17:54:26 12° W 17:56:17 10° WNW visible
27 Oct ? 04:03:04 10° ENE 04:04:37 12° E 04:06:08 10° ESE visible
27 Oct ? 05:36:58 10° N 05:41:13 58° WNW 05:45:19 10° SSW visible
28 Oct ? 04:19:44 10° NE 04:22:44 18° E 04:25:41 10° SE visible
29 Oct ? 04:37:05 10° NE 04:40:48 29° E 04:44:25 10° SSE visible
30 Oct ? 04:54:43 10° NNE 04:58:49 45° E 05:02:49 10° S visible
30 Oct ? 17:26:19 10° SW 17:29:48 21° W 17:33:18 10° NW visible
31 Oct ? 05:12:32 10° NNE 05:16:48 75° ESE 05:20:55 10° S visible
31 Oct ? 17:45:31 10° WSW 17:47:55 14° W 17:50:17 10° WNW visible
01 Nov ? 05:30:29 10° N 05:34:43 68° WNW 05:38:48 10° SSW visible
02 Nov ? 04:13:35 10° NE 04:16:09 16° E 04:18:41 10° SE visible
02 Nov ? 05:48:34 10° N 05:52:34 42° WNW 05:56:27 10° SW visible
